Emporia, KS

11:02 PM CDT on June 28, 2017 (GMT -0500)
Emporia Municipal

Weather History for KEMP - December, 2012

Change the Weather History Date:

Thursday, December 13, 2012

  Actual Average Record
Temperature  
Mean Temperature 46 °F 33 °F  
Max Temperature 58 °F 43 °F 64 °F (1996)
Min Temperature 33 °F 23 °F 8 °F (2010)
Degree Days  
Heating Degree Days 19 32  
Month to date heating degree days 283 390  
Since 1 July heating degree days 1158 1330  
Cooling Degree Days 0 0  
Month to date cooling degree days 0 0  
Year to date cooling degree days 1912 1403  
Moisture  
Dew Point 18 °F    
Average Humidity 42    
Maximum Humidity 59    
Minimum Humidity 24    
Precipitation  
Precipitation 0.00 in 0.05 in 1.88 in (2015)
Month to date precipitation 0.01 0.70  
Year to date precipitation 21.19 35.74  
Sea Level Pressure  
Sea Level Pressure 30.10 in    
Wind  
Wind Speed 14 mph (South)    
Max Wind Speed 23 mph    
Max Gust Speed 29 mph    
Visibility 10 miles    
Events      
T = Trace of Precipitation, MM = Missing Value Source: NWS Daily Summary

Daily Weather History Graph

Daily Weather History Graph

Search for Another Location

Airport or City:

Trip Planner

Search our weather history database for the weather conditions in past years. The results will help you decide how hot, cold, wet, or windy it might be!

Date:

Astronomy

Dec. 13, 2012 Rise Set
Actual Time 7:33 AM CST 5:04 PM CST
Civil Twilight 7:03 AM CST 5:34 PM CST
Nautical Twilight 6:30 AM CST 6:07 PM CST
Astronomical Twilight 5:58 AM CST 6:39 PM CST
Moon 7:43 AM CST (12/13) 5:48 PM CST (12/13)
Length of Visible Light 10h 30m
Length of Day
9h 31m
New Moon, 0% of the Moon is Illuminated
Dec 13
New Moon
Dec 19
First Quarter
Dec 28
Full
Jan 4
Last Quarter
Jan 11
New

Hourly Weather History & Observations

Time (CST) Temp. Windchill Dew Point Humidity Pressure Visibility Wind Dir Wind Speed Gust Speed Precip Events Conditions
12:53 AM 35.1 °F 24.5 °F 10.9 °F 37% 30.11 in 10.0 mi South 18.4 mph - N/A   Clear
1:53 AM 34.0 °F 22.1 °F 12.0 °F 40% 30.10 in 10.0 mi South 21.9 mph 28.8 mph N/A   Clear
2:53 AM 35.1 °F 23.5 °F 12.0 °F 39% 30.09 in 10.0 mi South 21.9 mph 28.8 mph N/A   Clear
3:53 AM 35.1 °F 23.8 °F 12.9 °F 40% 30.09 in 10.0 mi South 20.7 mph - N/A   Clear
4:53 AM 35.1 °F 24.5 °F 12.9 °F 40% 30.08 in 10.0 mi South 18.4 mph - N/A   Clear
5:53 AM 35.1 °F 25.5 °F 14.0 °F 42% 30.09 in 10.0 mi South 15.0 mph - N/A   Clear
6:53 AM 34.0 °F 25.0 °F 15.1 °F 46% 30.11 in 10.0 mi South 12.7 mph - N/A   Clear
7:53 AM 33.1 °F 26.1 °F 15.1 °F 48% 30.13 in 10.0 mi SSE 8.1 mph - N/A   Clear
8:53 AM 37.0 °F 27.7 °F 17.1 °F 44% 30.13 in 10.0 mi South 16.1 mph - N/A   Clear
9:53 AM 44.1 °F 35.9 °F 19.0 °F 37% 30.14 in 10.0 mi South 19.6 mph - N/A   Clear
10:53 AM 50.0 °F - 21.0 °F 32% 30.14 in 10.0 mi SSW 19.6 mph 25.3 mph N/A   Clear
11:53 AM 53.1 °F - 21.0 °F 29% 30.12 in 10.0 mi South 17.3 mph - N/A   Clear
12:53 PM 57.0 °F - 21.9 °F 26% 30.10 in 10.0 mi South 13.8 mph 21.9 mph N/A   Clear
1:53 PM 57.9 °F - 21.0 °F 24% 30.07 in 10.0 mi South 18.4 mph 24.2 mph N/A   Clear
2:53 PM 57.9 °F - 21.0 °F 24% 30.06 in 10.0 mi South 16.1 mph - N/A   Clear
3:53 PM 57.0 °F - 21.0 °F 25% 30.06 in 10.0 mi South 15.0 mph - N/A   Clear
5:53 PM 48.9 °F - 21.9 °F 35% 30.09 in 10.0 mi SSE 5.8 mph - N/A   Clear
6:53 PM 43.0 °F 39.5 °F 23.0 °F 45% 30.09 in 10.0 mi SSE 5.8 mph - N/A   Clear
7:53 PM 39.9 °F 33.9 °F 21.9 °F 49% 30.10 in 10.0 mi SE 9.2 mph - N/A   Clear
8:53 PM 39.0 °F 33.4 °F 21.9 °F 50% 30.10 in 10.0 mi SSE 8.1 mph - N/A   Clear
9:53 PM 37.9 °F 30.5 °F 23.0 °F 55% 30.09 in 10.0 mi SSE 11.5 mph - N/A   Clear
10:53 PM 36.0 °F 29.0 °F 23.0 °F 59% 30.10 in 10.0 mi SSE 9.2 mph - N/A   Clear